Lapse_Rate
6.5 4.4 4.6 5.0 5.4 6.1 6.0 6.0 5.9 6.1 5.9 6.1 5.8 5.6 5.2 5.1 4.9 5.1 6.1 6.9 7.4 7.6 7.5 6.4 6.3 6.2 6.2 5.7 5.6 5.6 5.8 6.4 7.0 7.0 6.5 6.8 7.2 7.9 7.7 7.0 7.0 7.0 7.1
7.2 5.6 4.6 4.7 5.4 5.7 6.0 6.0 6.0 5.7 5.9 5.9 6.1 5.7 5.5 5.5 5.2 5.5 6.2 7.2 7.6 8.4 7.4 7.2 7.0 6.2 6.1 5.7 5.7 6.0 6.8 6.8 6.9 7.1 7.3 7.1 7.3 7.7 7.6 7.0 6.9 7.0 7.2
8.4 6.6 5.7 4.7 5.1 5.7 5.9 5.9 5.8 5.7 5.8 5.9 6.1 5.9 5.8 5.8 5.7 5.7 6.9 7.8 8.1 7.5 7.1 6.9 6.6 6.7 6.2 5.7 5.7 6.5 6.8 6.6 6.7 7.6 8.0 7.5 7.3 7.8 7.7 7.2 6.8 6.8 7.0
8.1 7.7 6.1 5.0 5.1 5.7 5.8 6.0 5.9 5.9 5.9 5.8 6.0 5.9 5.6 5.8 5.8 6.2 7.6 8.6 8.4 7.1 6.9 6.5 6.5 6.2 6.2 5.7 5.8 6.5 6.6 7.1 7.1 7.4 7.9 8.0 7.8 7.6 7.4 7.5 7.3 6.5 6.8
1.6 4.7 5.6 5.2 5.1 5.9 5.7 6.0 6.2 6.2 6.1 6.0 5.7 6.2 5.9 5.7 5.5 6.2 8.0 7.5 7.5 6.8 6.4 6.4 6.3 5.9 6.2 5.9 5.7 6.4 6.7 6.8 7.3 7.4 7.3 7.8 7.0 7.4 7.7 7.4 7.0 6.4 6.9
-0.1 -0.0 0.0 4.7 5.3 5.8 5.7 5.7 6.4 6.2 6.1 6.1 6.1 6.0 6.5 6.4 5.8 6.3 7.1 7.2 7.9 6.1 6.2 6.1 6.0 5.9 5.8 5.9 5.8 5.8 6.2 6.5 7.3 8.0 7.8 8.0 7.3 7.6 7.2 6.9 6.7 6.5 6.6
-1.5 -0.2 -0.7 4.2 5.2 5.8 6.1 6.0 6.3 6.2 6.1 6.0 6.1 6.3 6.6 6.7 6.5 6.6 7.2 7.4 7.4 6.1 5.7 5.7 5.7 5.8 6.0 5.7 5.5 5.8 6.0 6.6 8.1 7.3 6.8 7.6 8.9 7.6 6.5 6.2 6.2 6.6 6.4
-1.8 -1.6 -1.4 0.4 4.8 5.9 6.0 6.0 6.1 6.1 6.1 5.9 6.2 6.4 6.3 6.1 5.1 5.2 7.0 7.4 6.9 6.4 6.1 5.7 5.7 5.5 5.2 5.5 5.4 5.7 6.4 6.9 8.3 7.1 6.7 7.2 8.7 8.9 7.6 6.0 6.0 6.2 6.5
-1.6 -1.8 -2.1 -1.9 0.4 3.3 4.2 4.0 4.7 5.0 4.7 5.6 6.1 6.3 6.1 5.8 5.0 5.2 6.8 7.1 6.3 6.0 6.7 5.9 5.6 5.2 4.8 5.1 5.2 6.0 6.6 7.3 8.1 7.9 7.0 6.6 7.1 6.7 6.2 5.9 5.8 5.7 5.8
-1.0 -0.8 -1.2 -1.3 -1.3 0.5 1.4 2.7 2.9 2.9 3.1 3.4 3.7 5.4 5.8 5.1 3.4 3.3 5.3 6.7 5.8 5.6 5.5 5.6 5.4 5.1 4.6 4.7 5.0 5.9 6.8 7.1 7.3 7.1 7.0 7.3 7.9 7.2 6.1 5.7 5.7 5.5 5.4
-0.4 -1.5 -1.7 -1.8 -1.2 -0.9 -0.4 1.2 1.7 2.3 2.9 3.5 3.1 3.0 3.6 4.5 3.3 2.3 2.5 6.0 6.4 5.5 5.5 5.2 5.1 5.2 5.0 4.9 5.0 5.8 6.6 6.2 7.3 6.9 6.4 7.6 7.0 6.4 5.9 5.6 5.4 5.3 5.2
-0.8 -1.2 -1.8 -1.7 -2.2 -1.4 -1.2 -0.3 0.0 0.4 1.6 2.3 2.5 2.0 1.8 2.3 2.5 1.8 2.4 4.5 5.4 4.8 5.5 5.4 5.5 5.7 5.8 5.9 5.7 6.5 6.2 6.7 6.8 6.5 6.3 6.6 6.7 6.3 6.0 5.9 5.8 5.5 5.2
-0.9 -1.4 -1.7 -1.6 -2.0 -1.8 -1.6 -1.3 -0.7 0.4 -0.0 0.2 1.4 1.7 1.6 1.7 1.7 1.3 1.5 1.7 2.0 2.7 4.6 5.9 5.9 6.4 6.7 7.4 7.0 6.8 7.1 8.5 6.3 6.0 6.2 6.2 6.6 6.3 6.2 6.1 6.1 6.0 5.8
-0.7 -1.1 -1.8 -1.7 -1.6 -2.0 -2.1 -2.2 -2.6 -0.7 -0.6 -0.5 -0.2 0.8 1.1 1.6 1.2 0.8 0.2 0.3 0.8 0.9 0.8 1.8 3.6 4.8 7.2 7.7 7.8 6.9 7.7 8.6 6.9 5.4 5.7 5.8 6.0 6.2 6.3 6.3 6.2 6.1 6.1
-0.6 -1.0 -1.3 -1.2 -1.5 -1.9 -2.1 -2.2 -2.7 -2.6 -2.4 -1.4 -0.5 -0.3 0.3 0.3 0.6 1.1 1.0 -0.3 0.2 0.3 0.6 0.9 1.9 3.0 3.8 5.1 5.8 5.0 6.4 6.6 7.2 6.3 5.5 5.7 5.6 5.7 6.0 6.4 6.4 6.4 6.3
-0.4 -0.6 -0.6 -1.3 -1.5 -1.6 -2.0 -2.5 -2.7 -3.0 -3.4 -2.7 -1.6 -1.2 -0.6 -0.1 -0.0 0.2 -0.2 1.0 0.3 1.0 1.0 0.8 1.2 2.1 2.8 2.6 2.5 3.7 4.0 4.6 5.4 6.1 5.8 5.8 5.9 5.8 6.0 6.5 6.4 6.5 6.4
-0.1 -0.2 -0.1 -0.5 -1.6 -1.8 -1.5 -2.4 -2.3 -2.2 -3.2 -3.1 -3.0 -2.4 -0.9 -0.5 0.0 0.1 -0.5 -0.5 0.5 1.7 2.0 1.2 1.1 1.3 1.0 2.0 1.7 2.0 2.4 3.4 4.0 4.2 4.9 5.0 5.2 5.7 5.4 5.9 6.3 6.4 6.5
0.9 0.4 -0.0 -0.1 -0.9 -1.7 -1.8 -1.7 -2.2 -2.8 -2.4 -2.4 -2.4 -1.7 -1.2 -0.7 0.1 0.0 -0.5 -1.0 -1.1 0.7 1.0 0.9 1.1 1.1 0.6 0.5 1.0 0.8 1.2 1.6 2.1 3.1 3.1 3.3 4.0 5.3 5.2 4.8 4.5 5.7 6.0
1.1 1.1 0.4 0.1 -0.4 -0.6 -0.7 -2.0 -2.1 -2.5 -2.5 -2.3 -2.0 -2.0 -1.3 -0.9 -0.8 -1.4 -0.7 -0.6 -1.1 -0.9 -0.5 0.9 0.9 1.6 0.5 -0.2 1.4 1.0 1.0 1.1 1.3 1.8 2.4 2.6 2.6 3.5 4.3 3.6 3.8 3.6 4.3
1.4 1.5 1.5 1.2 0.4 -0.2 0.1 -0.8 -1.6 -1.3 -1.7 -2.3 -2.4 -1.7 -1.2 -1.5 -1.8 -1.6 -1.8 -1.1 -0.6 -1.6 -0.8 0.2 0.5 0.6 -0.3 -0.6 2.4 2.1 0.3 -0.2 -0.2 0.3 1.1 1.7 2.0 2.1 2.1 2.2 2.4 1.8 2.2
2.5 2.0 2.3 2.4 1.9 1.5 0.3 0.6 -0.0 -0.6 -0.6 -1.5 -1.5 -1.9 -1.5 -1.7 -1.2 -1.5 -1.4 -1.5 -1.4 -1.3 -1.3 -1.0 -0.1 -0.0 -0.0 -1.6 2.0 2.9 2.1 1.9 0.6 -0.6 -0.2 0.4 0.8 1.6 1.8 1.4 1.4 1.7 1.3
2.9 3.1 2.6 2.8 2.9 3.1 2.2 0.5 0.3 1.0 -0.6 0.1 -0.5 -1.3 -0.7 -0.9 -1.0 -0.6 -1.1 -1.7 -1.4 -1.7 -1.9 -1.7 -0.9 0.3 -0.1 -0.6 0.7 1.0 2.7 2.4 1.6 1.2 0.5 1.2 0.1 -0.2 1.0 1.0 1.0 0.5 0.2
4.4 3.8 3.5 3.5 3.6 3.7 3.1 2.7 1.4 1.5 0.0 0.7 0.0 -0.7 -0.2 -0.1 -1.2 -1.4 -1.2 -1.7 -1.3 -1.1 -1.9 -2.0 -2.1 -0.7 0.7 0.2 0.4 1.1 1.3 2.9 0.8 -0.0 0.4 -0.1 0.6 0.3 -0.3 0.3 1.4 0.4 -0.1
4.8 4.7 4.6 4.5 4.1 4.8 4.6 4.8 3.8 3.6 1.5 0.8 1.0 -0.5 -1.0 0.5 0.1 -0.3 -0.8 -1.2 -1.4 -1.2 -1.5 -1.4 -1.4 -0.7 -0.0 -0.1 0.4 0.6 0.1 0.4 2.2 2.3 0.4 -1.0 0.1 0.8 -0.1 0.5 -0.1 0.7 -0.2
2.5 3.3 4.0 3.9 3.2 3.1 4.2 5.3 5.2 4.2 2.4 1.1 1.1 1.3 0.4 0.5 1.0 0.6 0.5 0.0 -0.5 -0.8 -0.6 -0.4 -0.3 -0.1 -0.4 -0.2 -0.5 0.7 1.1 0.5 1.1 2.8 4.3 3.0 1.7 -0.6 0.3 0.4 0.5 0.1 -0.4
2.0 1.6 2.4 1.8 2.0 1.9 2.4 4.5 5.8 4.6 2.9 1.9 1.2 1.7 1.3 0.3 0.8 1.4 1.0 0.4 -0.1 -0.3 -0.5 -0.3 0.3 0.2 0.3 -0.0 -0.3 0.1 0.3 1.4 1.4 2.1 4.0 3.4 3.4 1.0 0.8 0.1 0.6 0.3 0.2
Wind_Speed
8 10 8 8 9 6 5 5 14 16 16 17 15 14 13 13 12 12 11 12 15 16 16 14 14 15 17 17 17 17 17 16 16 19 20 20 18 21 22 23 20 20 24
12 12 8 8 8 6 6 7 16 16 14 15 15 14 13 12 13 12 12 12 13 14 13 12 16 15 16 16 15 12 12 12 9 10 19 19 18 20 21 20 20 21 24
7 13 9 7 7 1 6 9 14 15 15 16 16 14 13 11 12 12 12 12 12 14 12 12 15 16 15 14 12 10 10 9 9 12 11 17 18 19 21 21 21 22 23
5 4 12 7 7 3 6 9 13 14 15 16 15 15 13 13 11 11 11 11 16 13 11 15 15 15 15 14 10 7 9 14 16 17 17 17 16 20 21 21 22 22 22
11 13 8 5 4 4 6 8 11 13 14 13 14 13 15 13 12 11 7 14 18 14 14 15 14 13 14 13 9 5 9 9 7 15 21 18 16 17 19 22 21 20 21
9 15 15 3 2 3 7 7 10 12 12 12 12 13 15 12 11 10 11 16 19 13 14 13 12 12 13 11 7 7 10 13 9 16 19 16 17 17 18 19 19 21 21
8 12 15 0 0 4 9 7 9 11 10 10 12 13 13 15 11 11 14 17 17 12 13 12 11 11 11 10 7 6 10 15 18 19 18 14 15 16 17 18 18 19 20
8 12 14 18 12 8 9 8 8 9 8 9 9 13 13 16 14 11 12 17 15 10 13 11 11 10 10 9 7 8 11 13 14 19 19 15 15 14 16 17 17 18 19
11 12 15 17 15 21 20 21 18 16 15 9 9 12 15 16 13 11 11 14 13 10 12 11 12 10 10 8 6 6 9 12 15 17 15 13 14 14 15 16 16 17 17
9 11 13 15 16 12 14 22 22 20 19 18 17 16 17 20 19 14 9 12 13 12 11 9 10 10 9 7 5 5 8 11 8 17 16 13 13 14 15 15 15 16 16
9 10 12 12 13 12 11 12 17 20 17 17 16 18 15 14 16 15 13 11 13 11 10 10 8 8 9 7 4 1 6 10 13 13 15 13 13 13 14 14 15 15 15
8 9 9 10 11 12 10 7 13 12 16 16 14 13 14 16 15 11 16 13 12 10 8 7 4 5 7 6 5 5 8 2 16 13 13 11 11 11 12 13 13 14 14
5 7 8 8 11 11 8 9 9 9 11 14 13 11 12 12 12 11 13 15 13 16 7 3 2 5 9 7 9 8 9 9 14 14 13 11 10 9 10 10 11 12 13
8 8 8 10 8 11 8 9 8 7 10 9 10 11 7 8 10 9 9 10 12 13 12 13 11 12 13 12 7 12 11 5 13 13 15 11 9 8 8 7 8 9 10
8 8 8 8 8 9 8 7 9 8 10 7 10 13 10 9 6 8 9 10 10 10 8 8 9 10 12 14 14 14 13 14 15 11 12 11 9 9 8 5 5 5 6
7 8 7 8 10 10 8 9 9 8 11 9 11 10 11 10 9 7 9 6 10 9 8 7 7 6 8 10 11 15 14 15 14 13 9 8 8 8 9 12 8 12 11
5 6 6 7 9 8 7 10 7 8 12 9 10 11 15 14 9 8 7 4 8 9 6 7 6 8 6 7 6 10 12 13 14 14 11 11 9 9 11 11 10 11 12
5 6 7 6 7 8 7 8 7 11 12 10 11 8 10 13 11 8 6 5 8 8 6 5 4 3 3 4 3 5 7 10 12 12 12 12 11 10 10 11 12 9 10
5 5 6 6 6 6 7 9 8 11 9 10 10 11 9 12 11 13 6 3 7 10 7 4 3 2 2 3 4 3 3 4 9 11 11 11 12 12 9 14 20 21 19
5 5 5 4 5 5 3 4 7 6 9 11 10 9 10 7 13 11 8 8 3 6 5 3 4 3 2 3 3 4 3 5 8 9 9 12 12 14 12 11 10 16 20
5 6 5 4 3 2 2 2 2 2 3 4 7 12 8 10 12 11 7 6 5 4 5 4 1 5 3 2 3 2 3 4 5 3 7 9 12 13 14 12 11 10 12
5 5 5 5 4 3 3 2 2 1 4 2 8 10 8 9 11 9 7 5 7 3 6 5 3 2 1 5 1 3 2 1 3 4 5 5 8 11 12 13 11 11 12
4 5 4 4 4 4 5 2 2 3 2 3 2 4 9 8 10 9 9 8 6 5 4 5 4 3 2 1 7 1 2 2 1 3 4 5 7 6 10 11 11 12 13
5 5 4 5 4 3 2 3 3 2 3 3 2 0 6 9 8 7 8 7 6 5 5 4 4 3 1 2 1 4 4 2 2 1 2 3 5 6 7 9 10 10 13
6 5 5 6 7 6 5 5 2 4 4 3 3 4 5 8 7 7 6 6 6 5 6 4 3 4 3 2 2 0 2 1 3 3 0 1 0 5 6 8 8 10 12
4 6 6 6 6 7 6 5 5 6 5 2 4 3 3 3 4 5 7 8 7 6 5 4 5 5 4 3 3 3 2 2 2 2 1 1 3 3 3 6 5 6 8
Wind_Direction
108 112 89 58 55 139 142 125 142 149 151 143 139 133 126 121 121 119 106 109 113 105 92 89 88 86 80 79 79 78 81 82 85 85 71 59 54 51 52 49 46 45 50
114 108 88 62 29 142 142 123 145 147 150 145 139 135 130 123 125 124 116 105 96 94 92 95 99 89 86 86 82 79 78 73 66 77 78 64 53 52 58 54 50 48 51
84 118 114 70 48 17 144 132 144 148 150 148 144 139 133 126 129 127 124 112 108 94 89 85 83 100 91 86 80 76 73 65 56 55 103 77 52 50 55 54 53 54 56
77 109 91 71 35 156 145 130 148 151 154 153 150 142 136 130 132 132 128 117 111 94 93 88 78 93 91 88 79 62 57 54 86 62 58 64 54 48 47 49 52 49 58
22 3 80 76 51 140 138 147 153 158 157 158 152 149 139 136 137 136 122 108 100 96 87 89 82 82 89 87 78 47 40 37 57 76 62 64 60 52 46 46 49 48 59
18 3 3 97 17 158 143 156 151 160 164 162 160 152 146 137 136 128 107 114 100 96 93 88 85 80 85 80 60 26 11 3 351 86 75 61 67 58 53 50 46 48 57
27 6 3 237 221 176 140 135 146 155 159 163 167 157 151 135 133 119 117 106 98 102 101 98 89 88 85 77 56 20 6 7 74 76 67 56 68 63 59 52 48 45 51
30 10 10 24 65 131 115 115 125 139 155 155 159 150 142 120 115 107 108 100 99 103 105 98 93 95 87 76 46 14 7 4 82 83 77 58 56 63 60 59 53 48 45
32 23 10 23 20 69 85 86 79 86 76 98 140 137 122 108 105 107 102 101 103 100 103 97 94 95 95 84 53 14 352 3 92 94 85 75 67 64 61 56 54 52 49
37 26 14 17 20 29 77 85 86 83 81 79 84 118 121 100 88 77 114 112 103 100 100 99 97 95 102 100 76 359 338 334 82 92 90 80 67 64 62 62 60 56 53
36 29 19 15 14 8 47 71 84 85 78 68 66 74 72 94 82 73 68 114 113 106 103 105 110 120 116 118 121 213 294 317 94 88 86 81 72 66 62 61 61 61 58
33 25 20 20 12 8 15 48 77 75 83 67 63 67 71 71 77 80 58 80 98 78 112 114 126 144 173 150 163 211 258 264 91 86 83 79 78 72 68 63 61 61 61
50 39 22 19 19 18 10 30 53 67 64 82 72 72 81 83 77 62 62 34 38 32 19 92 196 239 236 205 192 229 244 108 109 99 92 77 85 75 69 64 60 60 61
65 45 27 22 27 28 19 34 31 53 89 75 89 92 76 86 79 76 74 59 42 27 22 19 11 12 23 18 0 16 7 89 109 107 100 87 74 70 62 57 54 56 60
66 48 35 27 29 35 27 36 38 51 49 76 87 87 87 80 59 90 80 72 56 36 36 34 16 13 26 18 29 30 22 37 89 107 109 101 79 60 42 29 37 40 54
65 53 38 35 31 40 45 31 46 35 55 31 57 84 92 94 103 90 79 65 62 36 27 42 50 31 32 25 35 23 22 19 48 72 107 93 87 70 47 42 50 50 40
54 52 44 50 35 37 40 53 14 59 46 22 52 41 78 81 69 81 90 68 80 39 17 7 58 57 59 38 37 40 24 16 30 35 54 52 46 60 51 43 48 41 36
62 51 56 58 50 45 28 47 42 49 50 45 45 24 74 77 98 77 63 55 72 75 24 41 7 65 80 79 69 35 28 27 22 29 37 48 42 48 53 62 46 42 47
71 66 59 57 60 64 26 50 37 56 57 33 25 46 25 77 76 82 66 65 82 69 47 18 31 329 54 64 86 81 54 40 25 23 20 37 41 38 46 78 72 53 52
80 74 74 77 70 65 54 57 69 66 52 55 31 36 31 38 79 75 75 54 29 93 83 39 40 4 56 55 41 89 82 71 41 38 14 18 28 30 31 39 77 67 59
76 72 74 82 122 111 53 59 50 5 73 66 50 38 24 34 58 73 76 84 29 65 86 79 11 42 337 354 123 80 52 97 97 91 45 37 17 24 35 27 37 59 63
85 92 76 60 38 33 112 81 78 318 53 62 84 50 40 36 46 68 72 65 64 72 76 63 68 102 13 335 123 120 149 156 82 59 73 66 42 24 27 35 29 51 55
80 74 79 57 61 63 85 113 102 112 113 55 11 94 49 45 52 56 60 63 56 65 76 75 61 71 124 17 355 18 127 184 128 47 44 64 58 48 35 32 20 45 56
64 57 54 53 49 47 356 173 166 200 112 80 101 28 64 42 47 56 68 67 64 64 68 66 70 66 7 114 74 9 25 19 128 111 20 34 91 64 38 36 32 33 47
15 12 37 40 27 7 12 3 49 82 69 103 85 64 88 74 56 52 70 78 71 69 77 75 78 83 73 81 55 61 8 95 99 62 242 213 161 92 67 47 32 40 38
29 25 47 42 30 2 1 355 83 112 122 101 127 94 65 85 66 50 65 65 64 60 60 61 54 64 94 94 96 66 66 16 35 120 114 17 331 62 75 78 34 33 41